[[{"header":{"parameterUnit":"m.s-1","parameterCategory":1,"la1":30.2991,"la2":30.254,"lo1":-89.0895,"lo2":-89.0444,"dy":0.0017,"dx":0.0017,"nx":28,"ny":28,"refTime":"2025-12-22T03:00:00:Z","depth":0,"parameterNumber":2,"parameterNumberName":"U-component_of_WINDS"},"data":[0,0,0,0,0,0,0,0,0,0,0,0,0,0,0,0,0,0,0,0,0,0,0,0,0,0,0,0,0,0,0,0,0,0,0,0,0,0,0,0,0,0,0,0,0,0,0,0,0,0,0,0,0,0,0,0,0,0,-0.3846,-0.3845,0,-0.3759,-0.3758,-0.3757,-0.3714,-0.3714,-0.3714,-0.3714,-0.3623,-0.362,-0.3618,0,0,0,0,0,0,0,0,0,0,0,0,0,-0.3973,-0.3971,-0.3846,-0.3845,-0.3844,-0.3759,-0.3758,-0.3757,-0.3714,-0.3714,-0.3714,-0.3714,-0.3624,-0.3621,-0.3618,0,0,0,0,0,0,0,0,0,0,0,0,0,-0.3905,-0.397,-0.3846,-0.3812,-0.3808,-0.3759,-0.3758,-0.3756,-0.3714,-0.3714,-0.3714,-0.3714,-0.3624,-0.3621,-0.3617,-0.3594,0,0,-0.3606,-0.3605,0,0,0,0,0,0,0,0,-0.3909,-0.39,-0.3818,-0.3815,-0.381,-0.3747,-0.3769,-0.3702,-0.3714,-0.375,-0.3714,-0.3714,-0.3664,-0.3657,-0.3641,-0.359,-0.3586,-0.3606,-0.3604,-0.3602,-0.3601,0,0,0,0,0,0,0,-0.3914,-0.3904,-0.3811,-0.3817,-0.3812,-0.3801,-0.3791,-0.3756,-0.3708,-0.3747,-0.3743,-0.3734,-0.3662,-0.3644,-0.3638,-0.3585,-0.3606,-0.3603,-0.36,-0.3599,-0.351,-0.351,0,0,0,0,0,0,-0.3924,-0.3908,-0.3814,-0.3809,-0.3861,-0.3798,-0.3788,-0.3767,-0.3708,-0.3699,-0.3734,-0.3732,-0.3651,-0.3643,-0.3635,-0.3603,-0.3602,-0.3599,-0.3596,-0.351,-0.351,-0.351,0,0,0,0,0,0,-0.3927,-0.3916,-0.3818,-0.3857,-0.3844,-0.3796,-0.3774,-0.3766,-0.3748,-0.3698,-0.3689,-0.3725,-0.365,-0.364,-0.3605,-0.36,-0.3597,-0.3594,-0.3511,-0.351,-0.351,-0.3541,0,0,0,0,0,0,-0.3931,-0.3918,-0.3909,-0.3858,-0.3842,-0.379,-0.3774,-0.3764,-0.3742,-0.3739,-0.3688,-0.3679,-0.3649,-0.361,-0.3601,-0.3595,-0.3591,-0.3511,-0.351,-0.351,-0.354,-0.3542,-0.3543,0,0,0,0,0,-0.3936,-0.3921,-0.3909,-0.3898,-0.383,-0.379,-0.3781,-0.3747,-0.3742,-0.3733,-0.37,-0.3681,-0.3602,-0.3607,-0.3596,-0.3589,-0.3511,-0.351,-0.351,-0.3539,-0.3542,-0.3543,0,0,0,0,0,0,-0.3972,-0.3913,-0.3899,-0.3868,-0.3834,-0.3783,-0.3769,-0.3751,-0.3717,-0.3716,-0.3675,-0.3664,-0.3632,-0.3607,-0.3614,-0.3563,-0.3554,-0.3552,-0.3581,-0.3582,-0.3584,-0.359,-0.3588,0,0,0,0,0,-0.3977,-0.3949,-0.3899,-0.3876,-0.386,-0.3818,-0.3799,-0.3776,-0.3739,-0.3724,-0.369,-0.3654,-0.3621,-0.36,-0.3567,-0.3537,-0.3524,-0.3526,-0.3527,-0.3529,-0.3527,-0.3508,-0.3508,-0.3509,-0.3509,-0.3509,0,0,-0.3985,-0.395,-0.3935,-0.3882,-0.3853,-0.3825,-0.3806,-0.3777,-0.3755,-0.372,-0.3684,-0.3658,-0.3615,-0.3582,-0.3566,-0.356,-0.3524,-0.3529,-0.353,-0.3527,-0.3508,-0.3508,-0.3508,-0.3509,-0.3509,-0.3509,0,0,-0.3986,-0.3957,-0.3934,-0.3906,-0.3863,-0.3835,-0.383,-0.3781,-0.3762,-0.3726,-0.3699,-0.3672,-0.3616,-0.3587,-0.3565,-0.3555,-0.3535,-0.3545,-0.3553,-0.3535,-0.3535,-0.3535,-0.3531,-0.353,-0.3544,-0.3544,-0.3544,0,-0.4002,-0.3959,-0.3925,-0.3897,-0.3874,-0.3842,-0.3818,-0.3792,-0.374,-0.3725,-0.3719,-0.3649,-0.3618,-0.3577,-0.3575,-0.3558,-0.355,-0.3551,-0.3538,-0.3537,-0.3537,-0.3532,-0.3531,-0.3545,-0.3545,-0.3545,-0.3545,0,-0.398,-0.3951,-0.3937,-0.3889,-0.3864,-0.3839,-0.38,-0.3779,-0.3759,-0.3731,-0.3695,-0.3657,-0.3615,-0.3604,-0.3583,-0.356,-0.3558,-0.3546,-0.3536,-0.3539,-0.3534,-0.3532,-0.3547,-0.3547,-0.3546,-0.3546,0,0,-0.4002,-0.3934,-0.393,-0.3907,-0.3857,-0.3833,-0.3806,-0.3766,-0.3749,-0.3714,-0.3689,-0.3643,-0.3632,-0.3607,-0.3582,-0.3567,-0.3561,-0.3557,-0.3555,-0.3558,-0.3532,-0.3541,-0.3539,-0.3548,-0.3547,-0.3547,-0.3535,0,-0.3995,-0.3945,-0.3913,-0.3875,-0.3847,-0.3816,-0.3792,-0.3758,-0.3732,-0.3703,-0.3674,-0.3642,-0.3629,-0.3614,-0.3597,-0.3565,-0.3555,-0.3566,-0.3524,-0.3522,-0.3535,-0.3537,-0.3546,-0.3537,-0.3533,-0.3533,-0.3532,0,-0.3981,-0.3947,-0.3907,-0.386,-0.3847,-0.3826,-0.3786,-0.376,-0.3721,-0.3702,-0.3675,-0.365,-0.3619,-0.3613,-0.3569,-0.3578,-0.3559,-0.354,-0.3539,-0.3533,-0.3527,-0.353,-0.3533,-0.3531,-0.3529,-0.3529,-0.353,0,-0.3999,-0.3944,-0.3913,-0.3894,-0.3839,-0.3824,-0.38,-0.3762,-0.3739,-0.3705,-0.369,-0.3652,-0.3631,-0.3602,-0.3568,-0.3567,-0.3528,-0.3519,-0.3511,-0.3512,-0.3503,-0.3504,-0.3502,-0.3493,-0.3493,-0.3493,-0.3493,0,-0.3995,-0.3971,-0.392,-0.3901,-0.3873,-0.3837,-0.381,-0.3783,-0.3749,-0.3723,-0.3694,-0.3671,-0.3627,-0.3598,-0.3571,-0.3539,-0.353,-0.3514,-0.3507,-0.3516,-0.3518,-0.3502,-0.3502,-0.3492,-0.3492,-0.3492,-0.3492,0,-0.4011,-0.3976,-0.3939,-0.389,-0.3876,-0.3858,-0.3815,-0.3795,-0.3767,-0.3735,-0.3725,-0.3682,-0.3646,-0.3609,-0.3561,-0.3543,-0.3511,-0.3501,-0.3524,-0.352,-0.3514,-0.3515,-0.3501,-0.3497,-0.3491,-0.3492,-0.3492,0,-0.401,-0.3991,-0.3939,-0.392,-0.3897,-0.3867,-0.3844,-0.3807,-0.3785,-0.3739,-0.3724,-0.3686,-0.3654,-0.3598,-0.3562,-0.3524,-0.3514,-0.3511,-0.3508,-0.3517,-0.3513,-0.3514,-0.3511,-0.3513,-0.3513,-0.3513,-0.3513,0,-0.4012,-0.3995,-0.3964,-0.3927,-0.39,-0.3869,-0.3837,-0.3823,-0.378,-0.3756,-0.3719,-0.3694,-0.3645,-0.3607,-0.3566,-0.354,-0.3519,-0.3515,-0.3511,-0.352,-0.3533,-0.3525,-0.3527,-0.3515,-0.3515,-0.3515,-0.3515,-0.3515,-0.4018,-0.4,-0.396,-0.3926,-0.3898,-0.3869,-0.3847,-0.3817,-0.3786,-0.3743,-0.3723,-0.3686,-0.3647,-0.3589,-0.3564,-0.3535,-0.3529,-0.3523,-0.3522,-0.3521,-0.3523,-0.3539,-0.3527,-0.3527,-0.3527,-0.3527,-0.3527,0,-0.4018,-0.3991,-0.396,-0.3916,-0.3889,-0.3873,-0.3836,-0.3814,-0.3782,-0.3748,-0.3717,-0.3675,-0.3638,-0.3599,-0.356,-0.3544,-0.3533,-0.3535,-0.3535,-0.353,-0.353,-0.3537,-0.3544,-0.3544,-0.3544,-0.3544,-0.3544,-0.3544,-0.4014,-0.3982,-0.3961,-0.3914,-0.3887,-0.3851,-0.3832,-0.3804,-0.3776,-0.3731,-0.37,-0.3675,-0.3639,-0.3597,-0.3563,-0.3552,-0.3539,-0.3543,-0.353,-0.3531,-0.353,-0.3528,-0.3535,-0.3541,-0.3541,-0.3531,-0.3531,-0.3531]},{"header":{"parameterUnit":"m.s-1","parameterCategory":1,"la1":30.2991,"la2":30.254,"lo1":-89.0895,"lo2":-89.0444,"dy":0.0017,"dx":0.0017,"nx":28,"ny":28,"refTime":"2025-12-22T03:00:00:Z","depth":0,"parameterNumber":3,"parameterNumberName":"V-component_of_WINDS"},"data":[0,0,0,0,0,0,0,0,0,0,0,0,0,0,0,0,0,0,0,0,0,0,0,0,0,0,0,0,0,0,0,0,0,0,0,0,0,0,0,0,0,0,0,0,0,0,0,0,0,0,0,0,0,0,0,0,0,0,2.4497,2.4497,0,2.4564,2.4565,2.4565,2.4605,2.4605,2.4606,2.4606,2.467,2.4672,2.4673,0,0,0,0,0,0,0,0,0,0,0,0,0,2.44,2.4401,2.4497,2.4497,2.4498,2.4564,2.4565,2.4566,2.4605,2.4605,2.4606,2.4606,2.467,2.4672,2.4673,0,0,0,0,0,0,0,0,0,0,0,0,0,2.4452,2.4402,2.4496,2.4526,2.4529,2.4564,2.4565,2.4566,2.4605,2.4605,2.4606,2.4606,2.4669,2.4671,2.4674,2.4682,0,0,2.4681,2.4682,0,0,0,0,0,0,0,0,2.4449,2.4455,2.4521,2.4524,2.4528,2.4577,2.4554,2.4605,2.4605,2.4576,2.4606,2.4606,2.4639,2.4643,2.4655,2.4686,2.4688,2.4681,2.4682,2.4683,2.4684,0,0,0,0,0,0,0,2.4445,2.4452,2.4523,2.4522,2.4526,2.4535,2.4543,2.4564,2.4605,2.4579,2.4582,2.4589,2.4641,2.4653,2.4657,2.4689,2.4681,2.4683,2.4684,2.4685,2.4731,2.4731,0,0,0,0,0,0,2.4437,2.4449,2.4521,2.4525,2.4488,2.4537,2.4545,2.4561,2.4605,2.4612,2.4589,2.4591,2.4649,2.4654,2.466,2.4674,2.4683,2.4686,2.4687,2.4731,2.4731,2.4731,0,0,0,0,0,0,2.4435,2.4443,2.4518,2.4488,2.4498,2.4538,2.4555,2.4562,2.4574,2.4613,2.462,2.4595,2.4649,2.4656,2.4677,2.4677,2.4687,2.4689,2.4732,2.4731,2.4731,2.4702,0,0,0,0,0,0,2.4432,2.4442,2.4447,2.4488,2.45,2.4536,2.4555,2.4563,2.4579,2.4582,2.462,2.4626,2.465,2.4673,2.4679,2.468,2.4691,2.4732,2.4732,2.4731,2.4703,2.47,2.4698,0,0,0,0,0,2.4428,2.4434,2.4447,2.4455,2.4506,2.4535,2.4542,2.4571,2.4578,2.4583,2.4608,2.4625,2.4676,2.4675,2.4682,2.4684,2.4732,2.4732,2.4731,2.4704,2.4701,2.4698,0,0,0,0,0,0,2.439,2.444,2.4454,2.4474,2.45,2.4542,2.4549,2.4566,2.459,2.4592,2.4625,2.4633,2.4651,2.4669,2.4668,2.4695,2.4706,2.4707,2.4683,2.468,2.4678,2.4673,2.4693,0,0,0,0,0,2.4384,2.4405,2.4447,2.446,2.4473,2.4508,2.4522,2.4542,2.457,2.4581,2.4607,2.4633,2.4655,2.4668,2.469,2.4706,2.4715,2.471,2.4708,2.4706,2.4706,2.4717,2.4715,2.473,2.473,2.473,0,0,2.4371,2.4402,2.4412,2.4453,2.4476,2.4496,2.4517,2.4537,2.4552,2.4584,2.4606,2.4626,2.4656,2.4675,2.4684,2.4691,2.4704,2.4705,2.4703,2.4705,2.4716,2.4715,2.4713,2.4729,2.473,2.473,0,0,2.4359,2.4384,2.4399,2.4421,2.4456,2.448,2.4483,2.4523,2.4538,2.4561,2.4586,2.4603,2.464,2.4661,2.4677,2.4674,2.4691,2.468,2.4668,2.4678,2.4677,2.4676,2.4676,2.4675,2.468,2.468,2.468,0,2.4339,2.4371,2.4403,2.4423,2.444,2.4471,2.4486,2.4506,2.4546,2.4557,2.4563,2.4611,2.4634,2.4658,2.4658,2.4669,2.4674,2.4676,2.4675,2.4674,2.4674,2.4674,2.4674,2.4679,2.4679,2.4679,2.4679,0,2.4345,2.4367,2.4374,2.4414,2.4433,2.4449,2.4483,2.4497,2.4516,2.4539,2.4562,2.459,2.4619,2.4627,2.4644,2.4654,2.4657,2.4669,2.468,2.467,2.4671,2.4671,2.4677,2.4677,2.4678,2.4678,0,0,2.431,2.4369,2.4371,2.439,2.4431,2.4448,2.4466,2.4497,2.4509,2.4535,2.4551,2.4582,2.4594,2.4611,2.4631,2.464,2.4637,2.4651,2.4652,2.4648,2.465,2.4642,2.4641,2.4648,2.4649,2.4649,2.4648,0,2.4304,2.4341,2.437,2.4395,2.4416,2.4446,2.4462,2.4489,2.451,2.4531,2.4554,2.4576,2.459,2.4601,2.461,2.4635,2.4638,2.4636,2.4663,2.4664,2.4656,2.4642,2.4633,2.4631,2.4649,2.4649,2.4649,0,2.4303,2.433,2.4357,2.4398,2.4408,2.4422,2.4453,2.4472,2.4502,2.4518,2.4538,2.456,2.458,2.4589,2.4617,2.4615,2.4628,2.4642,2.4642,2.4646,2.4656,2.4646,2.4631,2.4631,2.4649,2.4649,2.4649,0,2.4276,2.4319,2.4342,2.4357,2.4404,2.4414,2.4434,2.4465,2.4482,2.4508,2.4519,2.4546,2.4561,2.4582,2.461,2.4614,2.4635,2.4646,2.4648,2.4647,2.4651,2.4651,2.4639,2.4658,2.4658,2.4658,2.4658,0,2.4267,2.4283,2.4331,2.4344,2.4363,2.4396,2.4413,2.4436,2.4463,2.4482,2.4508,2.4524,2.456,2.458,2.4602,2.4622,2.4629,2.4641,2.4647,2.4639,2.4638,2.4649,2.465,2.4658,2.4658,2.4658,2.4658,0,2.424,2.4273,2.4299,2.4343,2.4355,2.4366,2.4403,2.4417,2.4441,2.4464,2.4471,2.4508,2.4533,2.4563,2.4597,2.4612,2.463,2.4638,2.4621,2.4624,2.4624,2.4624,2.4619,2.4621,2.4638,2.4638,2.4638,0,2.4233,2.4246,2.4292,2.4307,2.4327,2.435,2.4368,2.4401,2.4418,2.4455,2.4465,2.4493,2.4517,2.4556,2.4585,2.4611,2.4621,2.4617,2.4625,2.4617,2.4621,2.4621,2.4622,2.4615,2.4615,2.4614,2.4614,0,2.4216,2.4233,2.4258,2.4289,2.431,2.4336,2.4363,2.4373,2.4412,2.443,2.4457,2.4476,2.4512,2.4539,2.457,2.4589,2.4608,2.4612,2.4614,2.4606,2.4596,2.4602,2.4616,2.4612,2.4612,2.4612,2.4612,2.4612,2.42,2.4214,2.4249,2.4276,2.43,2.4325,2.4341,2.4368,2.4392,2.4425,2.4443,2.447,2.4501,2.4544,2.4563,2.4584,2.4591,2.4593,2.4594,2.4594,2.4592,2.4592,2.459,2.459,2.459,2.459,2.459,0,2.4186,2.421,2.4236,2.4274,2.4295,2.4313,2.4344,2.436,2.4384,2.4412,2.4436,2.4468,2.4495,2.4526,2.4555,2.4565,2.4575,2.4572,2.4572,2.4576,2.4584,2.4581,2.4564,2.4564,2.4564,2.4564,2.4564,2.4564,2.4181,2.4206,2.4226,2.4263,2.4287,2.4315,2.4331,2.4354,2.4377,2.4412,2.4435,2.4456,2.4486,2.4517,2.4542,2.4551,2.456,2.4555,2.4566,2.4573,2.4575,2.4577,2.4574,2.4556,2.4556,2.4556,2.4556,2.4556]}]]